TimeCDT,TemperatureF,Dew PointF,Humidity,Sea Level PressureIn,VisibilityMPH,Wind Direction,Wind SpeedMPH,Gust SpeedMPH,PrecipitationIn,Events,Conditions,WindDirDegrees,DateUTC
12:15 AM,30.0,17.4,59,30.18,10.0,South,8.1,-,N/A,,Clear,190,2013-04-04 05:15:00
12:35 AM,29.8,17.4,60,30.17,10.0,SSW,10.4,-,N/A,,Clear,200,2013-04-04 05:35:00
12:55 AM,30.0,17.6,60,30.16,10.0,SSW,9.2,-,N/A,,Clear,200,2013-04-04 05:55:00
1:15 AM,29.8,17.6,60,30.15,10.0,SSW,8.1,-,N/A,,Clear,210,2013-04-04 06:15:00
1:35 AM,29.5,17.6,61,30.15,10.0,SSW,6.9,-,N/A,,Clear,210,2013-04-04 06:35:00
1:55 AM,28.8,17.6,63,30.14,10.0,SSW,6.9,-,N/A,,Clear,200,2013-04-04 06:55:00
2:15 AM,28.8,17.6,63,30.13,10.0,SSW,6.9,-,N/A,,Clear,200,2013-04-04 07:15:00
2:35 AM,28.2,18.0,65,30.12,10.0,South,6.9,-,N/A,,Clear,190,2013-04-04 07:35:00
2:55 AM,28.4,18.1,65,30.11,10.0,SSW,6.9,-,N/A,,Clear,200,2013-04-04 07:55:00
3:15 AM,29.1,17.8,63,30.10,10.0,SSW,8.1,-,N/A,,Clear,210,2013-04-04 08:15:00
3:35 AM,29.5,17.8,62,30.09,10.0,SSW,8.1,-,N/A,,Clear,210,2013-04-04 08:35:00
3:55 AM,29.7,17.6,61,30.09,10.0,SSW,9.2,-,N/A,,Clear,200,2013-04-04 08:55:00
4:15 AM,30.0,17.4,59,30.09,10.0,SSW,8.1,-,N/A,,Clear,210,2013-04-04 09:15:00
4:35 AM,30.2,17.2,59,30.08,10.0,SSW,9.2,-,N/A,,Clear,210,2013-04-04 09:35:00
4:55 AM,30.2,17.2,59,30.07,10.0,SW,9.2,-,N/A,,Clear,220,2013-04-04 09:55:00
5:15 AM,30.4,16.9,57,30.06,10.0,SW,10.4,-,N/A,,Clear,220,2013-04-04 10:15:00
5:35 AM,30.2,17.1,58,30.06,10.0,SSW,9.2,-,N/A,,Clear,210,2013-04-04 10:35:00
5:55 AM,29.8,17.4,60,30.06,10.0,SSW,9.2,-,N/A,,Clear,210,2013-04-04 10:55:00
6:15 AM,29.8,17.6,60,30.04,10.0,SSW,8.1,-,N/A,,Clear,200,2013-04-04 11:15:00
6:35 AM,29.7,17.6,61,30.04,10.0,SSW,8.1,-,N/A,,Clear,210,2013-04-04 11:35:00
6:55 AM,30.6,17.4,58,30.04,10.0,SW,6.9,-,N/A,,Clear,220,2013-04-04 11:55:00
7:15 AM,32.0,17.4,55,30.04,10.0,SW,10.4,-,N/A,,Scattered Clouds,220,2013-04-04 12:15:00
7:35 AM,33.3,18.1,54,30.03,10.0,SW,12.7,-,N/A,,Scattered Clouds,220,2013-04-04 12:35:00
7:55 AM,35.6,17.8,48,30.03,10.0,SW,15.0,24.2,N/A,,Mostly Cloudy,230,2013-04-04 12:55:00
8:15 AM,35.4,18.7,51,30.02,10.0,SW,16.1,23.0,N/A,,Scattered Clouds,220,2013-04-04 13:15:00
8:35 AM,37.0,19.0,48,30.02,10.0,SW,13.8,18.4,N/A,,Scattered Clouds,230,2013-04-04 13:35:00
8:55 AM,37.6,19.9,49,30.01,10.0,SW,12.7,19.6,N/A,,Scattered Clouds,230,2013-04-04 13:55:00
9:15 AM,38.3,20.3,48,30.01,10.0,SW,11.5,23.0,N/A,,Scattered Clouds,230,2013-04-04 14:15:00
9:35 AM,39.0,20.8,48,30.00,10.0,WSW,15.0,20.7,N/A,,Mostly Cloudy,240,2013-04-04 14:35:00
9:55 AM,39.9,20.8,47,30.00,10.0,WSW,12.7,24.2,N/A,,Overcast,250,2013-04-04 14:55:00
10:35 AM,41.0,21.9,47,29.99,10.0,WSW,9.2,19.6,N/A,,Overcast,250,2013-04-04 15:35:00
10:37 AM,41.0,21.2,45,29.99,10.0,WSW,12.7,19.6,N/A,,Overcast,250,2013-04-04 15:37:00
10:55 AM,41.2,23.2,49,29.99,10.0,WSW,9.2,-,N/A,,Overcast,250,2013-04-04 15:55:00
11:55 AM,41.2,25.3,53,29.99,10.0,WSW,10.4,16.1,N/A,,Overcast,250,2013-04-04 16:55:00
12:15 PM,40.3,26.6,58,30.00,10.0,West,13.8,21.9,N/A,,Overcast,260,2013-04-04 17:15:00
12:35 PM,39.6,28.8,65,29.99,10.0,West,13.8,18.4,N/A,Rain,Light Rain,260,2013-04-04 17:35:00
12:55 PM,39.7,28.6,64,29.99,10.0,WSW,13.8,20.7,N/A,,Overcast,250,2013-04-04 17:55:00
1:15 PM,40.5,28.6,63,29.98,10.0,West,9.2,19.6,N/A,,Overcast,260,2013-04-04 18:15:00
1:55 PM,42.3,28.4,58,29.98,10.0,West,10.4,18.4,N/A,,Scattered Clouds,270,2013-04-04 18:55:00
2:15 PM,42.6,28.8,58,29.97,10.0,West,11.5,20.7,N/A,,Clear,260,2013-04-04 19:15:00
2:35 PM,43.2,29.3,58,29.96,10.0,West,12.7,18.4,N/A,,Clear,280,2013-04-04 19:35:00
2:55 PM,43.5,29.3,57,29.96,10.0,West,10.4,18.4,N/A,,Clear,280,2013-04-04 19:55:00
3:15 PM,44.4,29.3,55,29.96,10.0,West,13.8,19.6,N/A,,Clear,280,2013-04-04 20:15:00
3:35 PM,44.6,29.8,56,29.96,10.0,West,13.8,17.3,N/A,,Clear,260,2013-04-04 20:35:00
3:55 PM,45.1,29.5,54,29.96,10.0,West,13.8,20.7,N/A,,Clear,260,2013-04-04 20:55:00
4:15 PM,45.1,29.1,54,29.96,10.0,WNW,11.5,-,N/A,,Clear,290,2013-04-04 21:15:00
4:35 PM,45.5,28.8,52,29.96,10.0,West,9.2,19.6,N/A,,Clear,270,2013-04-04 21:35:00
4:55 PM,45.7,28.6,51,29.96,10.0,West,12.7,18.4,N/A,,Clear,270,2013-04-04 21:55:00
5:15 PM,46.0,28.0,50,29.96,10.0,West,10.4,-,N/A,,Clear,270,2013-04-04 22:15:00
5:35 PM,45.9,27.7,49,29.97,10.0,West,15.0,-,N/A,,Clear,270,2013-04-04 22:35:00
5:55 PM,45.5,27.1,49,29.97,10.0,West,12.7,18.4,N/A,,Clear,270,2013-04-04 22:55:00
6:15 PM,45.0,26.2,48,29.98,10.0,West,11.5,18.4,N/A,,Clear,270,2013-04-04 23:15:00
6:55 PM,43.5,24.8,48,29.98,10.0,West,8.1,-,N/A,,Clear,280,2013-04-04 23:55:00
7:15 PM,42.6,24.4,49,29.98,10.0,West,5.8,-,N/A,,Clear,280,2013-04-05 00:15:00
7:35 PM,41.4,24.4,51,29.98,10.0,West,5.8,-,N/A,,Clear,270,2013-04-05 00:35:00
7:55 PM,40.6,24.1,52,29.99,10.0,West,4.6,-,N/A,,Clear,280,2013-04-05 00:55:00
8:15 PM,39.7,24.1,54,29.99,10.0,West,4.6,-,N/A,,Clear,280,2013-04-05 01:15:00
8:35 PM,39.0,23.9,55,30.01,10.0,West,3.5,-,N/A,,Clear,280,2013-04-05 01:35:00
8:55 PM,38.5,23.9,56,30.02,10.0,West,5.8,-,N/A,,Clear,270,2013-04-05 01:55:00
9:15 PM,37.9,23.5,56,30.02,10.0,WNW,4.6,-,N/A,,Clear,300,2013-04-05 02:15:00
9:35 PM,37.6,23.4,57,30.03,10.0,NW,5.8,-,N/A,,Clear,310,2013-04-05 02:35:00
9:55 PM,36.1,23.4,60,30.04,10.0,NNW,4.6,-,N/A,,Clear,340,2013-04-05 02:55:00
10:15 PM,35.6,22.6,59,30.05,10.0,NNW,4.6,-,N/A,,Clear,340,2013-04-05 03:15:00
10:35 PM,34.7,21.9,60,30.05,10.0,North,4.6,-,N/A,,Clear,350,2013-04-05 03:35:00
10:55 PM,34.2,21.0,59,30.06,10.0,North,4.6,-,N/A,,Clear,350,2013-04-05 03:55:00
11:15 PM,33.8,19.2,55,30.06,10.0,North,5.8,-,N/A,,Clear,360,2013-04-05 04:15:00
11:35 PM,33.1,18.9,56,30.07,10.0,North,5.8,-,N/A,,Clear,360,2013-04-05 04:35:00
11:55 PM,32.5,18.5,56,30.08,10.0,North,5.8,-,N/A,,Clear,360,2013-04-05 04:55:00